| time (UTC) | temp F | wind direction | speed MPH | gust MPH | rain 1hr in | rain 24hr in | rain mn in | humidity % | barometer mb |
| 20260504060150 | 30 | 316 | 0.0 | 0.0 | 0.00 | 0.00 | 0.00 | 97 | 1008.3 |
| 20260504050618 | 30 | 314 | 0.0 | 0.0 | 0.00 | 0.00 | 0.00 | 96 | 1008.3 |
| 20260504050115 | 30 | 307 | 0.0 | 0.0 | 0.00 | 0.00 | 0.00 | 96 | 1008.2 |
| 20260504045612 | 30 | 299 | 0.0 | 0.0 | 0.00 | 0.00 | 0.00 | 96 | 1008.3 |
| 20260504045107 | 30 | 292 | 0.0 | 0.0 | 0.00 | 0.00 | 0.00 | 96 | 1008.3 |
| 20260504044605 | 29 | 300 | 0.0 | 0.0 | 0.00 | 0.00 | 0.00 | 96 | 1008.1 |
| 20260504044102 | 30 | 292 | 0.0 | 0.0 | 0.00 | 0.00 | 0.00 | 96 | 1008.2 |
| 20260504043559 | 30 | 331 | 0.0 | 0.0 | 0.00 | 0.00 | 0.00 | 96 | 1008.1 |
| 20260504043055 | 30 | 331 | 0.0 | 0.0 | 0.00 | 0.00 | 0.00 | 95 | 1008.1 |
| 20260504042553 | 30 | 331 | 0.0 | 0.0 | 0.00 | 0.00 | 0.00 | 95 | 1008.1 |
| 20260504042050 | 30 | 307 | 0.0 | 0.0 | 0.00 | 0.00 | 0.00 | 95 | 1008.1 |
| 20260504041545 | 30 | 318 | 0.0 | 0.0 | 0.00 | 0.00 | 0.00 | 95 | 1008.0 |
| 20260504041042 | 31 | 290 | 0.0 | 0.0 | 0.00 | 0.00 | 0.00 | 95 | 1008.1 |
| 20260504040539 | 31 | 303 | 0.0 | 0.0 | 0.00 | 0.00 | 0.00 | 94 | 1008.0 |
| 20260504040036 | 31 | 297 | 0.0 | 0.0 | 0.00 | 0.00 | 0.00 | 94 | 1007.9 |
| 20260504035532 | 31 | 294 | 0.0 | 0.0 | 0.00 | 0.00 | 0.00 | 94 | 1008.0 |
| 20260504035029 | 31 | 294 | 0.0 | 0.0 | 0.00 | 0.00 | 0.00 | 94 | 1008.0 |
| 20260504034527 | 30 | 292 | 0.0 | 0.0 | 0.00 | 0.00 | 0.00 | 93 | 1008.0 |
| 20260504034024 | 31 | 293 | 0.0 | 0.0 | 0.00 | 0.00 | 0.00 | 93 | 1007.8 |
| 20260504033522 | 31 | 290 | 0.0 | 0.0 | 0.00 | 0.00 | 0.00 | 93 | 1007.9 |
| 20260504033019 | 32 | 290 | 0.0 | 0.0 | 0.00 | 0.00 | 0.00 | 92 | 1007.7 |
| 20260504032515 | 32 | 296 | 0.0 | 0.0 | 0.00 | 0.00 | 0.00 | 92 | 1008.0 |
| 20260504032012 | 32 | 296 | 0.0 | 0.0 | 0.00 | 0.00 | 0.00 | 92 | 1007.8 |
| 20260504031509 | 32 | 299 | 0.0 | 0.0 | 0.00 | 0.00 | 0.00 | 91 | 1007.9 |
| 20260504031005 | 33 | 327 | 0.0 | 0.0 | 0.00 | 0.00 | 0.00 | 90 | 1008.0 |
| 20260504030503 | 33 | 280 | 0.0 | 0.0 | 0.00 | 0.00 | 0.00 | 91 | 1008.0 |
| 20260504025958 | 33 | 310 | 0.0 | 0.0 | 0.00 | 0.00 | 0.00 | 90 | 1007.8 |
| 20260504025456 | 33 | 294 | 0.0 | 0.0 | 0.00 | 0.00 | 0.00 | 89 | 1007.8 |
| 20260504024952 | 33 | 298 | 0.0 | 0.0 | 0.00 | 0.00 | 0.00 | 89 | 1007.9 |
| 20260504024449 | 34 | 303 | 0.0 | 0.0 | 0.00 | 0.00 | 0.00 | 88 | 1007.8 |
| 20260504023947 | 35 | 311 | 0.0 | 0.0 | 0.00 | 0.00 | 0.00 | 87 | 1007.7 |
| 20260504023444 | 34 | 319 | 0.0 | 0.0 | 0.00 | 0.00 | 0.00 | 87 | 1007.6 |
| 20260504022938 | 35 | 286 | 0.0 | 0.0 | 0.00 | 0.00 | 0.00 | 87 | 1007.8 |
| 20260504022435 | 35 | 297 | 0.0 | 0.0 | 0.00 | 0.00 | 0.00 | 86 | 1007.8 |
| 20260504021932 | 35 | 288 | 0.0 | 0.0 | 0.00 | 0.00 | 0.00 | 86 | 1007.8 |
| 20260504021429 | 35 | 316 | 0.0 | 0.0 | 0.00 | 0.00 | 0.00 | 85 | 1007.9 |
| 20260504020926 | 36 | 300 | 0.0 | 0.0 | 0.00 | 0.00 | 0.00 | 83 | 1007.9 |
| 20260504020423 | 36 | 294 | 0.0 | 0.0 | 0.00 | 0.00 | 0.00 | 82 | 1007.8 |
| 20260504015920 | 36 | 296 | 0.0 | 0.0 | 0.00 | 0.00 | 0.00 | 81 | 1007.7 |
| 20260504015416 | 36 | 292 | 0.0 | 0.0 | 0.00 | 0.00 | 0.00 | 80 | 1007.8 |
| 20260504014912 | 37 | 288 | 0.0 | 0.0 | 0.00 | 0.00 | 0.00 | 80 | 1007.7 |
| 20260504014408 | 37 | 296 | 0.0 | 0.0 | 0.00 | 0.00 | 0.00 | 80 | 1007.9 |
| 20260504013905 | 38 | 299 | 0.0 | 0.0 | 0.00 | 0.00 | 0.00 | 78 | 1007.8 |
| 20260504013403 | 38 | 322 | 0.0 | 0.0 | 0.00 | 0.00 | 0.00 | 78 | 1007.5 |
| 20260504012859 | 39 | 299 | 0.0 | 0.0 | 0.00 | 0.00 | 0.00 | 77 | 1007.8 |
| 20260504012357 | 39 | 316 | 0.0 | 0.0 | 0.00 | 0.00 | 0.00 | 75 | 1007.7 |
| 20260504011854 | 40 | 312 | 0.0 | 0.0 | 0.00 | 0.00 | 0.00 | 72 | 1007.6 |
| 20260504011351 | 41 | 305 | 0.0 | 0.0 | 0.00 | 0.00 | 0.00 | 71 | 1007.6 |
| 20260504010847 | 42 | 283 | 0.0 | 0.0 | 0.00 | 0.00 | 0.00 | 66 | 1007.4 |
| 20260504010343 | 43 | 278 | 0.0 | 0.0 | 0.00 | 0.00 | 0.00 | 64 | 1007.4 |
| 20260504005839 | 44 | 267 | 0.0 | 0.0 | 0.00 | 0.00 | 0.00 | 63 | 1007.2 |
| 20260504005336 | 44 | 268 | 0.0 | 0.0 | 0.00 | 0.00 | 0.00 | 63 | 1007.3 |
| 20260504004834 | 44 | 261 | 0.0 | 0.0 | 0.00 | 0.00 | 0.00 | 61 | 1007.3 |
| 20260504004331 | 45 | 284 | 1.0 | 2.0 | 0.00 | 0.00 | 0.00 | 61 | 1007.3 |
| 20260504003827 | 45 | 259 | 2.0 | 2.0 | 0.00 | 0.00 | 0.00 | 60 | 1007.1 |
| 20260504003325 | 45 | 264 | 1.0 | 2.0 | 0.00 | 0.00 | 0.00 | 60 | 1007.1 |
| 20260504002821 | 46 | 272 | 0.0 | 1.0 | 0.00 | 0.00 | 0.00 | 59 | 1006.9 |
| 20260504002318 | 46 | 298 | 2.0 | 3.0 | 0.00 | 0.00 | 0.00 | 58 | 1006.8 |
| 20260504001816 | 46 | 244 | 1.0 | 1.0 | 0.00 | 0.00 | 0.00 | 57 | 1006.6 |
| 20260504001313 | 46 | 300 | 1.0 | 2.0 | 0.00 | 0.00 | 0.00 | 57 | 1006.7 |
| 20260504000810 | 46 | 288 | 2.0 | 3.0 | 0.00 | 0.00 | 0.00 | 57 | 1006.5 |
| 20260504000307 | 46 | 282 | 2.0 | 3.0 | 0.00 | 0.00 | 0.00 | 56 | 1006.4 |
| 20260503235804 | 47 | 311 | 3.0 | 3.0 | 0.00 | 0.00 | 0.00 | 55 | 1006.4 |
| 20260503235304 | 47 | 260 | 2.0 | 2.0 | 0.00 | 0.00 | 0.00 | 56 | 1006.5 |
| 20260503234759 | 47 | 292 | 2.0 | 3.0 | 0.00 | 0.00 | 0.00 | 55 | 1006.3 |
| 20260503234257 | 48 | 235 | 3.0 | 3.0 | 0.00 | 0.00 | 0.00 | 55 | 1006.2 |
| 20260503233754 | 48 | 284 | 4.0 | 6.0 | 0.00 | 0.00 | 0.00 | 53 | 1006.0 |
| 20260503233249 | 48 | 264 | 1.0 | 2.0 | 0.00 | 0.00 | 0.00 | 56 | 1005.9 |
| 20260503232747 | 48 | 276 | 1.0 | 1.0 | 0.00 | 0.00 | 0.00 | 55 | 1005.8 |
| 20260503232244 | 48 | 292 | 1.0 | 2.0 | 0.00 | 0.00 | 0.00 | 55 | 1005.7 |
| 20260503231742 | 49 | 299 | 1.0 | 1.0 | 0.00 | 0.00 | 0.00 | 54 | 1005.6 |
| 20260503231239 | 49 | 288 | 2.0 | 3.0 | 0.00 | 0.00 | 0.00 | 53 | 1005.6 |
| 20260503230734 | 49 | 316 | 3.0 | 3.0 | 0.00 | 0.00 | 0.00 | 53 | 1005.5 |
| 20260503230232 | 50 | 268 | 1.0 | 1.0 | 0.00 | 0.00 | 0.00 | 53 | 1005.5 |
| 20260503225724 | 50 | 263 | 4.0 | 6.0 | 0.00 | 0.00 | 0.00 | 51 | 1005.3 |
| 20260503225224 | 50 | 314 | 3.0 | 3.0 | 0.00 | 0.00 | 0.00 | 52 | 1005.4 |
| 20260503224721 | 50 | 258 | 2.0 | 4.0 | 0.00 | 0.00 | 0.00 | 51 | 1005.1 |
| 20260503224219 | 50 | 245 | 3.0 | 6.0 | 0.00 | 0.00 | 0.00 | 50 | 1005.3 |
| 20260503223716 | 51 | 229 | 1.0 | 2.0 | 0.00 | 0.00 | 0.00 | 51 | 1005.0 |
| 20260503223214 | 51 | 287 | 6.0 | 9.0 | 0.00 | 0.00 | 0.00 | 49 | 1005.0 |
| 20260503222710 | 50 | 297 | 3.0 | 4.0 | 0.00 | 0.00 | 0.00 | 50 | 1004.9 |
| 20260503222208 | 50 | 302 | 2.0 | 3.0 | 0.00 | 0.00 | 0.00 | 50 | 1004.8 |
| 20260503221706 | 50 | 192 | 9.0 | 11.0 | 0.00 | 0.00 | 0.00 | 51 | 1004.8 |
| 20260503221203 | 50 | 269 | 2.0 | 2.0 | 0.00 | 0.00 | 0.00 | 51 | 1004.7 |
| 20260503220700 | 50 | 354 | 4.0 | 6.0 | 0.00 | 0.00 | 0.00 | 51 | 1004.7 |
| 20260503220156 | 50 | 201 | 4.0 | 7.0 | 0.00 | 0.00 | 0.00 | 51 | 1004.7 |
| 20260503215653 | 50 | 256 | 1.0 | 2.0 | 0.00 | 0.00 | 0.00 | 53 | 1004.7 |
| 20260503215149 | 50 | 231 | 1.0 | 1.0 | 0.00 | 0.00 | 0.00 | 55 | 1004.5 |
| 20260503214649 | 50 | 276 | 2.0 | 2.0 | 0.00 | 0.00 | 0.00 | 54 | 1004.6 |
| 20260503214144 | 50 | 287 | 5.0 | 8.0 | 0.00 | 0.00 | 0.00 | 52 | 1004.6 |
| 20260503213638 | 50 | 273 | 4.0 | 7.0 | 0.00 | 0.00 | 0.00 | 54 | 1004.5 |
| 20260503213134 | 50 | 78 | 2.0 | 2.0 | 0.00 | 0.00 | 0.00 | 55 | 1004.6 |
| 20260503212631 | 51 | 26 | 3.0 | 4.0 | 0.00 | 0.00 | 0.00 | 55 | 1004.6 |
| 20260503212129 | 51 | 283 | 5.0 | 8.0 | 0.00 | 0.00 | 0.00 | 54 | 1004.4 |
| 20260503211627 | 51 | 288 | 3.0 | 4.0 | 0.00 | 0.00 | 0.00 | 54 | 1004.3 |
| 20260503211121 | 51 | 288 | 1.0 | 2.0 | 0.00 | 0.00 | 0.00 | 55 | 1004.2 |
| 20260503210618 | 51 | 0 | 2.0 | 4.0 | 0.00 | 0.00 | 0.00 | 55 | 1004.1 |
| 20260503210115 | 51 | 33 | 2.0 | 2.0 | 0.00 | 0.00 | 0.00 | 54 | 1004.2 |
| 20260503205611 | 51 | 289 | 0.0 | 1.0 | 0.00 | 0.00 | 0.00 | 55 | 1004.2 |
| 20260503205107 | 51 | 38 | 7.0 | 8.0 | 0.00 | 0.00 | 0.00 | 52 | 1004.1 |
| 20260503204604 | 51 | 350 | 5.0 | 9.0 | 0.00 | 0.00 | 0.00 | 53 | 1004.2 |
| 20260503204101 | 51 | 45 | 2.0 | 3.0 | 0.00 | 0.00 | 0.00 | 54 | 1004.2 |
| 20260503203558 | 51 | 338 | 3.0 | 4.0 | 0.00 | 0.00 | 0.00 | 53 | 1004.2 |
| 20260503203056 | 52 | 334 | 4.0 | 6.0 | 0.00 | 0.00 | 0.00 | 53 | 1004.1 |
| 20260503202553 | 52 | 170 | 4.0 | 8.0 | 0.00 | 0.00 | 0.00 | 53 | 1004.3 |
| 20260503202051 | 52 | 38 | 6.0 | 14.0 | 0.00 | 0.00 | 0.00 | 52 | 1004.1 |
| 20260503201549 | 52 | 299 | 3.0 | 8.0 | 0.00 | 0.00 | 0.00 | 53 | 1004.1 |
| 20260503201046 | 52 | 267 | 1.0 | 2.0 | 0.00 | 0.00 | 0.00 | 54 | 1004.2 |
| 20260503200542 | 51 | 339 | 2.0 | 3.0 | 0.00 | 0.00 | 0.00 | 54 | 1004.1 |
| 20260503200038 | 51 | 355 | 1.0 | 3.0 | 0.00 | 0.00 | 0.00 | 52 | 1004.3 |
| 20260503195536 | 52 | 309 | 4.0 | 6.0 | 0.00 | 0.00 | 0.00 | 53 | 1004.3 |
| 20260503195027 | 52 | 256 | 4.0 | 4.0 | 0.00 | 0.00 | 0.00 | 54 | 1004.3 |
| 20260503194525 | 53 | 29 | 4.0 | 6.0 | 0.00 | 0.00 | 0.00 | 53 | 1004.2 |
| 20260503194024 | 54 | 335 | 3.0 | 4.0 | 0.00 | 0.00 | 0.00 | 54 | 1004.1 |
| 20260503193521 | 53 | 287 | 5.0 | 6.0 | 0.00 | 0.00 | 0.00 | 56 | 1004.3 |
| 20260503193017 | 53 | 312 | 4.0 | 6.0 | 0.00 | 0.00 | 0.00 | 54 | 1004.4 |
| 20260503192513 | 53 | 298 | 3.0 | 6.0 | 0.00 | 0.00 | 0.00 | 56 | 1004.4 |
| 20260503192009 | 52 | 292 | 1.0 | 1.0 | 0.00 | 0.00 | 0.00 | 57 | 1004.4 |
| 20260503191506 | 52 | 319 | 4.0 | 9.0 | 0.00 | 0.00 | 0.00 | 57 | 1004.4 |
| 20260503191003 | 52 | 227 | 4.0 | 6.0 | 0.00 | 0.00 | 0.00 | 57 | 1004.5 |
| 20260503190459 | 52 | 269 | 2.0 | 3.0 | 0.00 | 0.00 | 0.00 | 58 | 1004.6 |
| 20260503185956 | 52 | 234 | 4.0 | 7.0 | 0.00 | 0.00 | 0.00 | 57 | 1004.4 |
| 20260503185453 | 51 | 289 | 2.0 | 3.0 | 0.00 | 0.00 | 0.00 | 60 | 1004.4 |
| 20260503184952 | 51 | 231 | 1.0 | 1.0 | 0.00 | 0.00 | 0.00 | 60 | 1004.5 |
| 20260503184449 | 51 | 300 | 3.0 | 6.0 | 0.00 | 0.00 | 0.00 | 59 | 1004.5 |
| 20260503183945 | 51 | 285 | 2.0 | 3.0 | 0.00 | 0.00 | 0.00 | 58 | 1004.4 |
| 20260503183442 | 51 | 27 | 3.0 | 4.0 | 0.00 | 0.00 | 0.00 | 57 | 1004.4 |
| 20260503182939 | 52 | 282 | 6.0 | 8.0 | 0.00 | 0.00 | 0.00 | 58 | 1004.4 |
| 20260503182438 | 52 | 264 | 2.0 | 3.0 | 0.00 | 0.00 | 0.00 | 57 | 1004.3 |
| 20260503181935 | 51 | 318 | 3.0 | 4.0 | 0.00 | 0.00 | 0.00 | 60 | 1004.3 |
| 20260503181432 | 51 | 339 | 6.0 | 10.0 | 0.00 | 0.00 | 0.00 | 60 | 1004.3 |
| 20260503180928 | 51 | 57 | 4.0 | 9.0 | 0.00 | 0.00 | 0.00 | 62 | 1004.3 |
| 20260503180427 | 51 | 263 | 2.0 | 2.0 | 0.00 | 0.00 | 0.00 | 61 | 1004.4 |
| 20260503175923 | 51 | 325 | 6.0 | 9.0 | 0.00 | 0.00 | 0.00 | 63 | 1004.4 |
| 20260503175421 | 51 | 311 | 2.0 | 3.0 | 0.00 | 0.00 | 0.00 | 64 | 1004.4 |
| 20260503174916 | 50 | 232 | 2.0 | 3.0 | 0.00 | 0.00 | 0.00 | 66 | 1004.4 |
| 20260503174415 | 50 | 222 | 2.0 | 3.0 | 0.00 | 0.00 | 0.00 | 67 | 1004.4 |
| 20260503173909 | 50 | 288 | 3.0 | 4.0 | 0.00 | 0.00 | 0.00 | 67 | 1004.6 |
| 20260503173405 | 49 | 14 | 2.0 | 2.0 | 0.00 | 0.00 | 0.00 | 68 | 1004.5 |
| 20260503172902 | 48 | 8 | 1.0 | 2.0 | 0.00 | 0.00 | 0.00 | 69 | 1004.5 |
| 20260503172400 | 48 | 254 | 3.0 | 3.0 | 0.00 | 0.00 | 0.00 | 71 | 1004.4 |
| 20260503171856 | 48 | 344 | 4.0 | 6.0 | 0.00 | 0.00 | 0.00 | 70 | 1004.6 |
| 20260503171353 | 48 | 341 | 0.0 | 1.0 | 0.00 | 0.00 | 0.00 | 70 | 1004.7 |
| 20260503170850 | 48 | 306 | 4.0 | 7.0 | 0.00 | 0.00 | 0.00 | 70 | 1004.7 |
| 20260503170346 | 48 | 285 | 0.0 | 1.0 | 0.00 | 0.00 | 0.00 | 71 | 1004.7 |
| 20260503150739 | 46 | 269 | 3.0 | 4.0 | 0.00 | 0.00 | 0.00 | 84 | 1004.9 |
| 20260503150235 | 46 | 37 | 4.0 | 4.0 | 0.00 | 0.00 | 0.00 | 84 | 1005.1 |
| 20260503140159 | 43 | 317 | 3.0 | 4.0 | 0.00 | 0.00 | 0.00 | 92 | 1005.7 |
| 20260503131129 | 42 | 310 | 3.0 | 4.0 | 0.00 | 0.00 | 0.00 | 95 | 1006.1 |
| 20260503130626 | 42 | 292 | 1.0 | 2.0 | 0.00 | 0.00 | 0.00 | 96 | 1006.4 |
| 20260503130124 | 43 | 313 | 2.0 | 3.0 | 0.00 | 0.00 | 0.00 | 96 | 1006.2 |
| 20260503110511 | 42 | 31 | 1.0 | 1.0 | 0.00 | 0.00 | 0.00 | 99 | 1006.9 |
| 20260503090356 | 41 | 296 | 0.0 | 0.0 | 0.00 | 0.00 | 0.00 | 99 | 1007.3 |
| 20260503081323 | 41 | 286 | 0.0 | 0.0 | 0.00 | 0.00 | 0.00 | 99 | 1008.1 |
| 20260503080820 | 41 | 321 | 0.0 | 0.0 | 0.00 | 0.00 | 0.00 | 99 | 1008.2 |
| 20260503080317 | 41 | 328 | 0.0 | 0.0 | 0.00 | 0.00 | 0.00 | 99 | 1008.0 |
| 20260503072753 | 42 | 284 | 0.0 | 0.0 | 0.00 | 0.00 | 0.00 | 99 | 1008.2 |
| 20260503072251 | 42 | 303 | 0.0 | 0.0 | 0.00 | 0.00 | 0.00 | 99 | 1008.0 |
| 20260503071746 | 42 | 290 | 1.0 | 1.0 | 0.00 | 0.00 | 0.00 | 99 | 1008.0 |
| 20260503071244 | 42 | 322 | 0.0 | 1.0 | 0.00 | 0.00 | 0.00 | 99 | 1008.1 |
| 20260503070740 | 42 | 304 | 1.0 | 2.0 | 0.00 | 0.00 | 0.00 | 99 | 1008.2 |
| 20260503070239 | 42 | 297 | 1.0 | 1.0 | 0.00 | 0.00 | 0.00 | 99 | 1008.1 |